This demonstration page uses our WeatherBlox Daily Observations layout. Learn more.

Left ArrowRight Arrow

Hourly Observations for July 9, 2016

Temp ( °F °C ) Dew Point ( °F °C ) Humidity (%) Winds ( mph kmh ) Pressure ( in mb ) Visibility ( mi km ) Precip ( " mm )
12:59 am 00:59 Mostly Cloudy 80 26.7 70 21.1 71 71 W 10 17 29.82 1010 10 16 0.00 0.00
1:59 am 01:59 Mostly Cloudy 78 25.6 68 20 71 71 W 9 15 29.82 1010 10 16 0.00 0.00
2:59 am 02:59 Mostly Cloudy 76 24.4 67 19.4 74 74 W 9 15 29.82 1010 10 16 0.00 0.00
3:59 am 03:59 Mostly Cloudy 76 24.4 68 20 77 77 WSW 8 13 29.80 1009 10 16 0.00 0.00
4:59 am 04:59 Mostly Cloudy 75 23.9 68 20 79 79 WSW 9 15 29.81 1010 10 16 0.00 0.00
5:59 am 05:59 Mostly Cloudy 75 23.9 68 20 79 79 W 10 17 29.82 1010 10 16 0.00 0.00
6:59 am 06:59 Mostly Cloudy 76 24.4 69 20.6 79 79 W 10 17 29.83 1010 10 16 0.00 0.00
7:59 am 07:59 Mostly Cloudy 77 25 69 20.6 77 77 W 9 15 29.84 1011 10 16 0.00 0.00
8:59 am 08:59 Mostly Cloudy 77 25 68 20 74 74 W 15 24 29.85 1011 10 16 0.00 0.00
9:59 am 09:59 Mostly Cloudy 79 26.1 69 20.6 72 72 W 10 17 29.85 1011 10 16 0.00 0.00
10:59 am 10:59 Mostly Cloudy 82 27.8 71 21.7 69 69 W 8 13 29.85 1011 10 16 0.00 0.00
11:59 am 11:59 Mostly Cloudy 83 28.3 72 22.2 70 70 W 8 13 29.85 1011 10 16 0.00 0.00
12:59 pm 12:59 Mostly Cloudy 85 29.4 73 22.8 68 68 VRB 3 6 29.85 1011 10 16 0.00 0.00
1:59 pm 13:59 Mostly Cloudy 86 30 72 22.2 63 63 WSW 5 7 29.85 1011 10 16 0.00 0.00
2:59 pm 14:59 Mostly Cloudy 88 31.1 73 22.8 61 61 W 9 15 29.85 1011 10 16 0.00 0.00
3:59 pm 15:59 Mostly Cloudy 88 31.1 72 22.2 59 59 W 10 17 29.84 1010 10 16 0.00 0.00
4:59 pm 16:59 Mostly Cloudy 89 31.7 71 21.7 55 55 WSW 10 17 29.83 1010 10 16 0.00 0.00
5:59 pm 17:59 Mostly Cloudy 89 31.7 69 20.6 52 52 W 10 17 29.81 1010 10 16 0.00 0.00
6:59 pm 18:59 Mostly Cloudy 88 31.1 70 21.1 55 55 W 9 15 29.83 1010 10 16 0.00 0.00
7:59 pm 19:59 Mostly Cloudy 87 30.6 71 21.7 59 59 WSW 8 13 29.84 1011 10 16 0.00 0.00
8:59 pm 20:59 Mostly Cloudy 84 28.9 72 22.2 67 67 SW 7 11 29.84 1011 10 16 0.00 0.00
9:59 pm 21:59 Partly Cloudy 84 28.9 73 22.8 70 70 SW 8 13 29.85 1011 10 16 0.00 0.00
10:59 pm 22:59 Partly Cloudy 83 28.3 73 22.8 72 72 WSW 7 11 29.86 1011 9 14 0.00 0.00
11:59 pm 23:59 Partly Cloudy 82 27.8 72 22.2 72 72 WSW 8 13 29.87 1011 10 16 0.00 0.00

Powered by AerisWeather